Location: Poughquag
(41.6090°N, 73.6820°W)
Time: 12:33:21
(UTC-04:00)

Vanguard 1 Rocket - Pass Details

Date: 07 June 2020
Orbit: 653 x 4224 km, 34.3° (Epoch: 06 July)

Event Time Altitude Azimuth Distance (km) Brightness Sun altitude
Rises 19:35:35 0° 191° (S) 7,900 12.0 7.7°
Reaches altitude 10° 19:42:48 10° 179° (S) 7,213 11.7 6.4°
Maximum altitude 20:00:23 24° 135° (SE) 6,203 11.1 3.5°
Drops below altitude 10° 20:16:19 10° 92° (E) 6,646 11.3 0.9°
Sets 20:22:17 0° 80° (E) 7,201 11.5 -0.1°
